Hauptseite
METAR-TAF:

METAR-TAF

Flughäfen :

RAF Fairford

Fairford, England

Breite: 51-41N, Länge: 001-47W, Höhe: 87 m

Beobachtung

Neuester Wetterbericht von vor 48 Minuten, um 12:56 UTC
Wind 12 kt aus Süd/Südwest
Temperatur 23°C
Luftfeuchtigkeit 73%
Luftdruck 1017 hPa
Sichtweite 10 km oder mehr
Geschlossene Wolkendecke in der Höhe von 1700 ft

METAR: EGVA 061256Z AUTO 20012KT 9999 OVC017 23/18 A3003 RMK AO2 SLP170 T02250184 $

Zeit: 14:44 (13:44 UTC)


TAF: fehlend

Wetterbeobachtungen und Prognosen von mehr als 4000 Flughäfen (METAR und TAF Bericht).

Die verfügbaren Stationen werden durch gelbe und rote Markierungen auf der Karte dargestellt.

Führen Sie die Maus auf sie, um den Namen der Station zu sehen.

Darauf klicken, um die Beobachtung von Wetterbeobachtungen und Prognosen zu sehen.

Um die Karte zu ändern : klicken Sie auf den grünen Tasten mit einem schwarzen Kreuz Zum Vergrößern, auf den grünen Button mit einem Gedankenstrich zu verkleinern, oder auf die grünen Pfeile für benachbarte Karten.


METAR-TAF: